{"data":{"norad_id":69966,"epoch":"2026-09-20T05:06:25.657344Z","epoch_age_seconds":42600,"freshness":"FRESH","line1":"1 69966U 26157Z   26263.21279696  .00015100  00000+0  45671-3 0  9990","line2":"2 69966  53.1584 334.7192 0001584 314.4601  45.6271 15.34429390 11333","mean_motion":15.3442939,"eccentricity":0.0001584,"inclination_deg":53.1584,"raan_deg":334.7192,"arg_perigee_deg":314.4601,"mean_anomaly_deg":45.6271,"bstar":0.00045671,"rev_number":1133,"period_min":93.845960549543,"perigee_km":461.53231307022,"apogee_km":463.69946358524,"semimajor_km":6840.7528883277,"source":"CELESTRAK","updated_at":"2026-09-20T09:00:44.303679Z"}}